When you browse on this site, cookies collect data to enhance your experience and personalize the content and advertising you see.
Visit our Privacy Policy to learn more. By continuing to use the site, you agree to this use of cookies and data.
  • In Hungary
  • List of Countries
  • For 7 days
  • Water Temperature
  • Satellite Maps
  • Weather Map
  • News
  • Weather Widgets
  • user-avatar
    Login

    Hourly Weather Putten

    Today, 27 June, Thursday

    Time Temperature Precipitation Wind Pressure Humidity
    00:00 +14°C° 0 mm 3 mps 770 mmHg 86%
    01:00 +13°C° 0 mm 3 mps 770 mmHg 88%
    02:00 +12°C° 0 mm 3 mps 770 mmHg 90%
    03:00 +11°C° 0 mm 3 mps 770 mmHg 92%
    04:00 +12°C° 0 mm 3 mps 770 mmHg 88%
    05:00 +13°C° 0 mm 3 mps 770 mmHg 85%
    06:00 +14°C° 0 mm 4 mps 771 mmHg 81%
    07:00 +15°C° 0 mm 4 mps 771 mmHg 78%
    08:00 +17°C° 0 mm 4 mps 771 mmHg 75%
    09:00 +18°C° 0 mm 4 mps 771 mmHg 72%
    10:00 +19°C° 0 mm 4 mps 771 mmHg 69%
    11:00 +20°C° 0 mm 4 mps 771 mmHg 67%
    12:00 +21°C° 0 mm 5 mps 771 mmHg 64%
    13:00 +21°C° 0 mm 5 mps 770 mmHg 65%
    14:00 +20°C° 0 mm 5 mps 770 mmHg 66%
    15:00 +20°C° 0 mm 5 mps 770 mmHg 67%
    16:00 +19°C° 0 mm 5 mps 770 mmHg 70%
    17:00 +17°C° 0 mm 5 mps 770 mmHg 73%
    18:00 +17°C° 0 mm 5 mps 770 mmHg 76%
    19:00 +15°C° 0 mm 4 mps 770 mmHg 81%
    20:00 +14°C° 0 mm 4 mps 770 mmHg 86%
    21:00 +12°C° 0 mm 3 mps 770 mmHg 91%
    22:00 +11°C° 0 mm 3 mps 770 mmHg 92%
    23:00 +12°C° 0 mm 2 mps 770 mmHg 93%

    Tomorrow, 28 June, Friday

    Time Temperature Precipitation Wind Pressure Humidity
    00:00 +10°C° 0 mm 2 mps 770 mmHg 95%
    01:00 +10°C° 0 mm 2 mps 770 mmHg 95%
    02:00 +10°C° 0 mm 2 mps 770 mmHg 95%
    03:00 +10°C° 0 mm 2 mps 769 mmHg 95%
    04:00 +12°C° 0 mm 2 mps 769 mmHg 90%
    05:00 +13°C° 0 mm 2 mps 769 mmHg 86%
    06:00 +14°C° 0 mm 2 mps 769 mmHg 82%
    07:00 +16°C° 0 mm 2 mps 769 mmHg 75%
    08:00 +18°C° 0 mm 2 mps 769 mmHg 68%
    09:00 +20°C° 0 mm 2 mps 769 mmHg 62%
    10:00 +21°C° 0 mm 3 mps 769 mmHg 59%
    11:00 +22°C° 0 mm 3 mps 768 mmHg 55%
    12:00 +24°C° 0 mm 3 mps 768 mmHg 52%
    13:00 +24°C° 0 mm 3 mps 768 mmHg 54%
    14:00 +25°C° 0 mm 4 mps 767 mmHg 55%
    15:00 +25°C° 0 mm 4 mps 767 mmHg 56%
    16:00 +23°C° 0 mm 4 mps 767 mmHg 61%
    17:00 +22°C° 0 mm 4 mps 767 mmHg 65%
    18:00 +21°C° 0 mm 4 mps 766 mmHg 69%
    19:00 +19°C° 0 mm 4 mps 766 mmHg 77%
    20:00 +17°C° 0 mm 3 mps 766 mmHg 84%
    21:00 +14°C° 0 mm 3 mps 767 mmHg 91%
    22:00 +13°C° 0 mm 3 mps 766 mmHg 93%
    23:00 +13°C° 0 mm 3 mps 766 mmHg 94%

    Day after tomorrow, 29 June, Saturday

    Time Temperature Precipitation Wind Pressure Humidity
    00:00 +12°C° 0 mm 3 mps 766 mmHg 95%
    01:00 +12°C° 0 mm 3 mps 766 mmHg 95%
    02:00 +13°C° 0 mm 2 mps 765 mmHg 96%
    03:00 +12°C° 0 mm 2 mps 765 mmHg 96%
    04:00 +14°C° 0 mm 2 mps 765 mmHg 92%
    05:00 +15°C° 0 mm 2 mps 764 mmHg 88%
    06:00 +17°C° 0 mm 2 mps 764 mmHg 84%
    07:00 +19°C° 0 mm 2 mps 764 mmHg 76%
    08:00 +21°C° 0 mm 2 mps 764 mmHg 68%
    09:00 +24°C° 0 mm 3 mps 764 mmHg 59%
    10:00 +25°C° 0 mm 3 mps 763 mmHg 55%
    11:00 +27°C° 0 mm 3 mps 763 mmHg 50%
    12:00 +28°C° 0 mm 3 mps 762 mmHg 46%
    13:00 +29°C° 0 mm 3 mps 762 mmHg 45%
    14:00 +29°C° 0 mm 3 mps 762 mmHg 44%
    15:00 +30°C° 0 mm 3 mps 761 mmHg 43%
    16:00 +29°C° 0 mm 2 mps 761 mmHg 48%
    17:00 +28°C° 0 mm 2 mps 760 mmHg 53%
    18:00 +28°C° 0 mm 2 mps 760 mmHg 57%
    19:00 +26°C° 0 mm 2 mps 760 mmHg 60%
    20:00 +24°C° 0 mm 2 mps 760 mmHg 64%
    21:00 +21°C° 0 mm 2 mps 760 mmHg 67%
    22:00 +21°C° 0 mm 2 mps 759 mmHg 69%
    23:00 +20°C° 0 mm 3 mps 759 mmHg 70%

    30 June, Sunday

    Time Temperature Precipitation Wind Pressure Humidity
    00:00 +20°C° 0 mm 3 mps 759 mmHg 72%
    01:00 +19°C° 0 mm 3 mps 758 mmHg 75%
    02:00 +19°C° 0 mm 3 mps 758 mmHg 78%
    03:00 +18°C° 0 mm 3 mps 758 mmHg 81%
    04:00 +20°C° 0 mm 3 mps 758 mmHg 80%
    05:00 +21°C° 0 mm 3 mps 758 mmHg 80%
    06:00 +22°C° 0 mm 3 mps 758 mmHg 80%
    07:00 +23°C° 0 mm 4 mps 758 mmHg 76%
    08:00 +26°C° 0 mm 4 mps 759 mmHg 73%
    09:00 +27°C° 0 mm 4 mps 759 mmHg 70%
    10:00 +27°C° 0 mm 4 mps 759 mmHg 67%
    11:00 +26°C° 0 mm 4 mps 759 mmHg 65%
    12:00 +26°C° 0 mm 5 mps 759 mmHg 63%
    13:00 +26°C° 0 mm 5 mps 760 mmHg 60%
    14:00 +26°C° 0 mm 4 mps 760 mmHg 57%
    15:00 +25°C° 0 mm 4 mps 760 mmHg 54%
    16:00 +23°C° 0 mm 4 mps 760 mmHg 58%
    17:00 +24°C° 0 mm 3 mps 761 mmHg 61%
    18:00 +22°C° 0 mm 3 mps 761 mmHg 65%
    19:00 +20°C° 0 mm 2 mps 761 mmHg 71%
    20:00 +18°C° 0 mm 2 mps 761 mmHg 77%
    21:00 +16°C° 0 mm 1 mps 761 mmHg 83%
    22:00 +16°C° 0 mm 1 mps 761 mmHg 83%
    23:00 +16°C° 0 mm 2 mps 761 mmHg 84%

    1 July, Monday

    Time Temperature Precipitation Wind Pressure Humidity
    00:00 +15°C° 0 mm 2 mps 761 mmHg 84%
    01:00 +14°C° 0 mm 3 mps 761 mmHg 88%
    02:00 +14°C° 0 mm 3 mps 761 mmHg 92%
    03:00 +14°C° 0 mm 3 mps 761 mmHg 96%
    04:00 +16°C° 0 mm 3 mps 761 mmHg 92%
    05:00 +17°C° 0 mm 4 mps 761 mmHg 88%
    06:00 +19°C° 0 mm 4 mps 761 mmHg 84%
    07:00 +20°C° 0 mm 4 mps 761 mmHg 77%
    08:00 +20°C° 0 mm 5 mps 761 mmHg 70%
    09:00 +21°C° 0 mm 5 mps 761 mmHg 64%
    10:00 +22°C° 0 mm 5 mps 762 mmHg 62%
    11:00 +22°C° 0 mm 6 mps 762 mmHg 60%
    12:00 +22°C° 0 mm 6 mps 762 mmHg 59%
    13:00 +21°C° 0 mm 6 mps 762 mmHg 58%
    14:00 +21°C° 0 mm 6 mps 762 mmHg 58%
    15:00 +20°C° 0 mm 6 mps 762 mmHg 58%
    16:00 +19°C° 0 mm 6 mps 762 mmHg 61%
    17:00 +17°C° 0 mm 5 mps 762 mmHg 63%
    18:00 +18°C° 0 mm 4 mps 763 mmHg 65%
    19:00 +15°C° 0 mm 4 mps 763 mmHg 69%
    20:00 +14°C° 0 mm 3 mps 763 mmHg 74%
    21:00 +14°C° 0 mm 2 mps 763 mmHg 78%
    22:00 +14°C° 0 mm 2 mps 763 mmHg 78%
    23:00 +12°C° 0 mm 3 mps 764 mmHg 79%

    2 July, Tuesday

    Time Temperature Precipitation Wind Pressure Humidity
    00:00 +12°C° 0 mm 3 mps 764 mmHg 79%
    01:00 +12°C° 0 mm 3 mps 764 mmHg 82%
    02:00 +12°C° 0 mm 3 mps 764 mmHg 86%
    03:00 +12°C° 0 mm 3 mps 764 mmHg 89%
    04:00 +13°C° 0 mm 3 mps 764 mmHg 87%
    05:00 +14°C° 0 mm 3 mps 764 mmHg 84%
    06:00 +15°C° 0 mm 4 mps 765 mmHg 82%
    07:00 +17°C° 0.1 mm 4 mps 765 mmHg 77%
    08:00 +17°C° 0.1 mm 4 mps 765 mmHg 73%
    09:00 +16°C° 0.1 mm 5 mps 765 mmHg 69%
    10:00 +17°C° 0 mm 5 mps 766 mmHg 65%
    11:00 +17°C° 0 mm 5 mps 766 mmHg 62%
    12:00 +19°C° 0 mm 5 mps 766 mmHg 58%
    13:00 +17°C° 0 mm 5 mps 766 mmHg 59%
    14:00 +17°C° 0 mm 5 mps 766 mmHg 59%
    15:00 +17°C° 0 mm 5 mps 767 mmHg 59%
    16:00 +16°C° 0 mm 5 mps 767 mmHg 62%
    17:00 +15°C° 0 mm 5 mps 767 mmHg 64%
    18:00 +14°C° 0 mm 5 mps 767 mmHg 67%
    19:00 +13°C° 0 mm 4 mps 767 mmHg 72%
    20:00 +11°C° 0 mm 3 mps 767 mmHg 78%
    21:00 +10°C° 0 mm 2 mps 768 mmHg 83%
    22:00 +9°C° 0 mm 2 mps 767 mmHg 85%
    23:00 +9°C° 0 mm 2 mps 767 mmHg 86%
    Show more